Weather Roundup
Issued by NWS Springfield, MO

Home | Current Version | Previous Version | Text Only | Print | Product List | Glossary On
Versions: 1 2 3 4 5 6 7 8 9 10 11 12 13 14 15 16 17 18 19 20 21 22 23 24 25 26 27 28 29 30 31 32 33 34 35 36 37 38 39 40 41 42 43 44 45 46 47 48 49 50
000
NZUS99 KSGF 200859
HRRSGF

HOURLY WEATHER
NATIONAL WEATHER SERVICE SPRINGFIELD MO
300 AM CST SAT DEC 20 2014

......SGF CWA......

CITY           SKY/WX    TMP DP  RH WIND       PRES   REMARKS
SPRINGFIELD    CLOUDY    37  36  96 S7        30.19S FOG     WCI  32
JOPLIN         CLOUDY    38  37  97 W3        30.22R FOG
WEST PLAINS    CLOUDY    33  31  92 CALM      30.23R FOG
ROLLA          CLOUDY    34  32  92 SE5       30.20R FOG     WCI  30
OSAGE BEACH    CLOUDY    37  34  87 SE3       30.22R

......SURROUNDING SGF CWA......

CITY           SKY/WX    TMP DP  RH WIND       PRES   REMARKS
CHANUTE        CLOUDY    35  34  96 S3        30.22S FOG
PARSONS        CLOUDY    35  35 100 CALM      30.23S FOG
COFFEYVILLE    FOG       34  33  96 NE5       30.22F VSB 1/2 WCI  30
EMPORIA        CLOUDY    33  31  92 S10       30.16F WCI  25
ROGERS AR      LGT RAIN  39  39 100 W6        30.20R VSB 3/4 WCI  35
SILOAM SPRINGS CLOUDY    39  34  81 NW3       30.21S VSB 1/2
HARRISON AR    FOG       36  36 100 SE6       30.19F VSB 1/4 WCI  31
NEAR YELLVILLE MOCLDY    37  32  81 E5        30.22S WCI  34

......KANSAS AND MISSOURI......

CITY           SKY/WX    TMP DP  RH WIND       PRES   REMARKS
KANSAS CTY INT CLOUDY    32  31  96 CALM      30.20R FOG
DOWNTOWN KC    CLOUDY    34  31  88 SW6       30.21R WCI  29
COLUMBIA       CLOUDY    35  33  92 SE5       30.22R FOG     WCI  31
SEDALIA        FOG       37  36  96 SE6       30.21R VSB 1/2 WCI  32
ST JOSEPH      CLOUDY    32  29  88 S6        30.20S WCI  26
ST LOUIS       CLOUDY    36  26  67 SE6       30.26S WCI  31
SPIRIT OF STL  CLOUDY    35  29  78 CALM      30.25S
KIRKSVILLE     CLOUDY    32  32 100 S5        30.22R FOG     WCI  27
WICHITA        CLEAR     35  31  85 S8        30.16S WCI  29
TOPEKA         CLOUDY    35  30  82 S6        30.19R WCI  30
OLATHE         CLOUDY    33  32  96 SW6       30.19R FOG     WCI  28

......TENNESSEE......

CITY           SKY/WX    TMP DP  RH WIND       PRES   REMARKS
MEMPHIS        MOCLDY    38  32  79 NE3       30.22F
NASHVILLE      CLEAR     34  26  72 N5        30.23R WCI  30

......ARKANSAS.......

CITY           SKY/WX    TMP DP  RH WIND       PRES   REMARKS
FAYETTEVILLE   CLOUDY    40  39  97 SW3       30.20R
FT SMITH       CLOUDY    42  39  89 E3        30.22R
LITTLE ROCK    CLOUDY    41  34  76 NE6       30.25R

......OKLAHOMA.......

CITY           SKY/WX    TMP DP  RH WIND       PRES   REMARKS
TULSA          CLOUDY    39  36  89 CALM      30.23S
PONCA CITY     MOCLDY    37  33  85 S5        30.20S WCI  33
MCALESTER      CLOUDY    41  40  96 N3        30.22R FOG
OKLAHOMA CITY  CLOUDY    40  36  86 W3        30.20R FOG

......IOWA............

CITY           SKY/WX    TMP DP  RH WIND       PRES   REMARKS
DES MOINES     LGT SNOW  33  30  88 S6        30.18S FOG     WCI  28
QUAD CITIES    CLOUDY    29  24  82 E5        30.26S WCI  24

......ILLINOIS........

CITY           SKY/WX    TMP DP  RH WIND       PRES   REMARKS
QUINCY         CLOUDY    32  27  81 SE7       30.23F WCI  26
CHICAGO        CLOUDY    30  23  75 CALM      30.27S




USA.gov is the U.S. government's official web portal to all federal, state and local government web resources and services.